UAE84N OMDB-EHAM

Flight info

Callsign UAE84N
Flight time N/A
Altitude 32000
Route RIDAP M557 TUMAK L602 GADSI M860 SEPTU/N0484F340 DCT VUSEB M860 NINVA UM860 ODALI UL852 NEGEM DCT MAXOV DCT BADOR DCT PITOK DCT MAKAL DCT LALUK DCT NORKU
Aircraft B77L/H-SDE1E2E3FGHIJ2J3J4J5M1RWXY/LB1D1

Departure

Time N/A
Airport Dubai International Airport (OMDB)

Arrival

Time 2026-05-07 05:34
Airport Amsterdam Airport Schiphol (EHAM)
Time Latitude Longitude Altitude Speed Heading
2026-05-07 04:50 51.50852 10.73477 37907 ft 471 kts 286°
2026-05-07 04:50 51.52917 10.63485 37910 ft 471 kts 286°
2026-05-07 04:51 51.54975 10.53485 37905 ft 472 kts 286°
2026-05-07 04:51 51.57024 10.43476 37911 ft 472 kts 286°
2026-05-07 04:52 51.59066 10.33451 37916 ft 471 kts 286°
2026-05-07 04:52 51.61092 10.23451 37919 ft 471 kts 286°
2026-05-07 04:53 51.63114 10.13426 37912 ft 470 kts 286°
2026-05-07 04:53 51.65126 10.03405 37919 ft 471 kts 286°
2026-05-07 04:54 51.67130 9.93364 37915 ft 471 kts 286°
2026-05-07 04:54 51.69114 9.83367 37916 ft 471 kts 286°
2026-05-07 04:55 51.71117 9.73222 37918 ft 472 kts 286°
2026-05-07 04:55 51.72825 9.64524 37915 ft 472 kts 286°
2026-05-07 04:56 51.74806 9.54406 37919 ft 472 kts 285°
2026-05-07 04:56 51.76759 9.44368 37920 ft 472 kts 285°
2026-05-07 04:57 51.78716 9.34246 37925 ft 472 kts 285°
2026-05-07 04:57 51.80661 9.24146 37921 ft 471 kts 285°
2026-05-07 04:58 51.82601 9.14022 37935 ft 471 kts 285°
2026-05-07 04:58 51.84532 9.03894 37937 ft 471 kts 285°
2026-05-07 04:59 51.86451 8.93763 37934 ft 471 kts 285°
2026-05-07 04:59 51.88360 8.83636 37931 ft 471 kts 285°
2026-05-07 05:00 51.90263 8.73475 37933 ft 471 kts 285°
2026-05-07 05:00 51.91199 8.68454 37934 ft 471 kts 285°
2026-05-07 05:01 51.91482 8.66933 37928 ft 472 kts 285°
2026-05-07 05:01 51.93372 8.56771 37936 ft 471 kts 285°
2026-05-07 05:02 51.95253 8.46595 37942 ft 471 kts 285°
2026-05-07 05:02 51.97122 8.36419 37942 ft 471 kts 285°
2026-05-07 05:03 51.98983 8.26226 37946 ft 471 kts 285°
2026-05-07 05:03 52.00834 8.16034 37963 ft 471 kts 285°
2026-05-07 05:04 52.02669 8.05890 37958 ft 470 kts 285°
2026-05-07 05:04 52.04501 7.95691 37962 ft 470 kts 285°
2026-05-07 05:05 52.06323 7.85481 37954 ft 471 kts 285°
2026-05-07 05:05 52.08137 7.75272 37955 ft 470 kts 285°
2026-05-07 05:06 52.09945 7.65045 37974 ft 470 kts 285°
2026-05-07 05:06 52.10846 7.59929 37712 ft 474 kts 285°
2026-05-07 05:06 52.11758 7.54722 36932 ft 480 kts 285°
2026-05-07 05:07 52.12666 7.49521 36178 ft 478 kts 285°
2026-05-07 05:07 52.13572 7.44323 35351 ft 477 kts 285°
2026-05-07 05:07 52.14477 7.39120 34428 ft 478 kts 285°
2026-05-07 05:07 52.15380 7.33910 33481 ft 479 kts 285°
2026-05-07 05:08 52.16281 7.28693 32486 ft 481 kts 285°
2026-05-07 05:08 52.17188 7.23425 31460 ft 482 kts 285°
2026-05-07 05:08 52.18083 7.18221 30751 ft 475 kts 285°
2026-05-07 05:08 52.18968 7.13053 30038 ft 469 kts 285°
2026-05-07 05:09 52.19829 7.08026 29359 ft 464 kts 285°
2026-05-07 05:09 52.20688 7.02987 28666 ft 460 kts 285°
2026-05-07 05:09 52.21639 6.98042 27969 ft 455 kts 292°
2026-05-07 05:09 52.23268 6.93670 27353 ft 447 kts 309°
2026-05-07 05:10 52.25306 6.89892 26807 ft 440 kts 311°
2026-05-07 05:10 52.27295 6.86137 26227 ft 435 kts 309°
2026-05-07 05:10 52.29228 6.82348 25662 ft 432 kts 309°
2026-05-07 05:10 52.31117 6.78559 25099 ft 430 kts 308°
2026-05-07 05:11 52.32998 6.74761 24538 ft 429 kts 308°
2026-05-07 05:11 52.34870 6.70982 23976 ft 427 kts 308°
2026-05-07 05:11 52.36731 6.67230 23410 ft 422 kts 308°
2026-05-07 05:11 52.38570 6.63521 22857 ft 417 kts 308°
2026-05-07 05:12 52.40389 6.59846 22309 ft 413 kts 308°
2026-05-07 05:12 52.42186 6.56214 21768 ft 409 kts 308°
2026-05-07 05:12 52.43966 6.52608 21239 ft 406 kts 308°
2026-05-07 05:12 52.45711 6.48992 20697 ft 399 kts 304°
2026-05-07 05:13 52.46917 6.44919 20170 ft 401 kts 285°
2026-05-07 05:13 52.47288 6.40427 19666 ft 395 kts 273°
2026-05-07 05:13 52.47458 6.35931 19154 ft 394 kts 274°
2026-05-07 05:13 52.47651 6.31463 18635 ft 393 kts 274°
2026-05-07 05:14 52.47857 6.27012 18118 ft 390 kts 274°
2026-05-07 05:14 52.48069 6.22597 17602 ft 386 kts 274°
2026-05-07 05:14 52.48279 6.18294 17100 ft 382 kts 275°
2026-05-07 05:14 52.48490 6.13976 16597 ft 378 kts 275°
2026-05-07 05:15 52.48698 6.09692 16106 ft 376 kts 275°
2026-05-07 05:15 52.48902 6.05430 15613 ft 375 kts 274°
2026-05-07 05:15 52.49105 6.01168 15116 ft 374 kts 275°
2026-05-07 05:15 52.49305 5.96919 14632 ft 373 kts 274°
2026-05-07 05:16 52.49503 5.92686 14133 ft 372 kts 275°
2026-05-07 05:16 52.49699 5.88464 13644 ft 370 kts 274°
2026-05-07 05:16 52.49892 5.84273 13158 ft 368 kts 274°
2026-05-07 05:16 52.50083 5.80104 12666 ft 366 kts 274°
2026-05-07 05:17 52.50272 5.75957 12223 ft 362 kts 274°
2026-05-07 05:17 52.50455 5.71908 12031 ft 348 kts 274°
2026-05-07 05:17 52.50631 5.68002 11587 ft 343 kts 274°
2026-05-07 05:17 52.50802 5.64198 11395 ft 320 kts 274°
2026-05-07 05:18 52.50963 5.60679 11081 ft 300 kts 274°
2026-05-07 05:18 52.51079 5.57330 10583 ft 289 kts 268°
2026-05-07 05:18 52.50639 5.54172 10073 ft 283 kts 250°
2026-05-07 05:18 52.49951 5.51126 9841 ft 284 kts 250°
2026-05-07 05:19 52.49282 5.48113 9705 ft 278 kts 251°
2026-05-07 05:19 52.48634 5.45174 9581 ft 273 kts 251°
2026-05-07 05:19 52.47989 5.42239 9478 ft 271 kts 251°
2026-05-07 05:19 52.47358 5.39351 9363 ft 270 kts 251°
2026-05-07 05:20 52.46725 5.36429 9253 ft 271 kts 251°
2026-05-07 05:20 52.46090 5.33536 9165 ft 271 kts 251°
2026-05-07 05:20 52.45453 5.30619 9070 ft 273 kts 251°
2026-05-07 05:20 52.44810 5.27670 8969 ft 276 kts 251°
2026-05-07 05:21 52.44165 5.24716 8850 ft 275 kts 251°
2026-05-07 05:21 52.42880 5.18808 8629 ft 274 kts 251°
2026-05-07 05:21 52.42240 5.15888 8515 ft 271 kts 251°
2026-05-07 05:22 52.41600 5.12980 8421 ft 271 kts 251°
2026-05-07 05:22 52.40968 5.10089 8313 ft 270 kts 251°
2026-05-07 05:22 52.40334 5.07194 8207 ft 270 kts 251°
2026-05-07 05:22 52.39701 5.04307 8102 ft 270 kts 251°
2026-05-07 05:23 52.39067 5.01414 8001 ft 271 kts 251°
2026-05-07 05:23 52.38645 4.99496 7917 ft 272 kts 251°
2026-05-07 05:23 52.38001 4.96581 7787 ft 272 kts 250°
2026-05-07 05:23 52.37362 4.93688 7679 ft 270 kts 251°
2026-05-07 05:24 52.36726 4.90816 7570 ft 269 kts 251°
2026-05-07 05:24 52.36091 4.87940 7462 ft 269 kts 251°
2026-05-07 05:24 52.35456 4.85070 7360 ft 268 kts 250°
2026-05-07 05:24 52.34823 4.82217 7251 ft 267 kts 250°
2026-05-07 05:25 52.34194 4.79391 7141 ft 260 kts 250°
2026-05-07 05:25 52.33589 4.76674 7030 ft 247 kts 251°
2026-05-07 05:25 52.33338 4.73973 6844 ft 244 kts 279°
2026-05-07 05:25 52.33732 4.71277 6670 ft 245 kts 285°
2026-05-07 05:26 52.34127 4.68545 6423 ft 247 kts 283°
2026-05-07 05:26 52.34501 4.65830 6179 ft 240 kts 282°
2026-05-07 05:26 52.34460 4.63187 5914 ft 235 kts 249°
2026-05-07 05:26 52.33669 4.60914 5730 ft 238 kts 237°
2026-05-07 05:27 52.32770 4.58587 5512 ft 244 kts 238°
2026-05-07 05:27 52.31865 4.56223 5274 ft 244 kts 238°
2026-05-07 05:27 52.30970 4.53899 5011 ft 238 kts 238°
2026-05-07 05:27 52.30093 4.51625 4780 ft 235 kts 238°
2026-05-07 05:28 52.29216 4.49364 4562 ft 236 kts 238°
2026-05-07 05:28 52.28338 4.47096 4332 ft 236 kts 238°
2026-05-07 05:28 52.27407 4.44908 4144 ft 232 kts 226°
2026-05-07 05:28 52.26020 4.43652 3889 ft 232 kts 190°
2026-05-07 05:29 52.24424 4.43853 3676 ft 234 kts 159°
2026-05-07 05:29 52.22971 4.45048 3457 ft 235 kts 147°
2026-05-07 05:29 52.21792 4.46746 3196 ft 221 kts 119°
2026-05-07 05:29 52.21258 4.48981 2999 ft 206 kts 105°
2026-05-07 05:30 52.20847 4.51186 2783 ft 196 kts 99°
2026-05-07 05:30 52.21009 4.53252 2601 ft 179 kts 62°
2026-05-07 05:30 52.21675 4.54895 2474 ft 173 kts 58°
2026-05-07 05:30 52.22298 4.56536 2293 ft 169 kts 59°
2026-05-07 05:31 52.22923 4.58168 2135 ft 171 kts 59°
2026-05-07 05:31 52.23560 4.59828 1966 ft 172 kts 59°
2026-05-07 05:31 52.24168 4.61402 1740 ft 157 kts 59°
2026-05-07 05:31 52.24732 4.62870 1527 ft 150 kts 59°
2026-05-07 05:32 52.25291 4.64323 1340 ft 151 kts 58°
2026-05-07 05:32 52.25844 4.65760 1144 ft 148 kts 57°
2026-05-07 05:32 52.26390 4.67177 941 ft 147 kts 57°
2026-05-07 05:32 52.26934 4.68587 732 ft 147 kts 57°
2026-05-07 05:33 52.27474 4.69984 570 ft 143 kts 57°
2026-05-07 05:33 52.27990 4.71331 375 ft 141 kts 57°
2026-05-07 05:33 52.28512 4.72689 172 ft 140 kts 57°
2026-05-07 05:33 52.29024 4.74020 19 ft 133 kts 58°
2026-05-07 05:34 52.29456 4.75141 -1 ft 96 kts 58°
2026-05-07 05:34 52.29713 4.75809 0 ft 42 kts 58°
2026-05-07 05:34 52.29849 4.76163 -2 ft 36 kts 58°
2026-05-07 05:34 52.29969 4.76465 0 ft 26 kts 49°
2026-05-07 05:35 52.30122 4.76618 2 ft 25 kts 28°
2026-05-07 05:35 52.30226 4.76702 2 ft 6 kts
2026-05-07 05:35 52.30243 4.76645 2 ft 7 kts 252°
2026-05-07 05:35 52.30217 4.76573 2 ft 8 kts 239°
2026-05-07 05:36 52.30185 4.76489 2 ft 9 kts 239°
2026-05-07 05:36 52.30148 4.76392 2 ft 11 kts 236°
2026-05-07 05:36 52.30096 4.76258 3 ft 15 kts 238°
2026-05-07 05:36 52.30038 4.76106 2 ft 16 kts 238°
2026-05-07 05:37 52.29979 4.75953 2 ft 16 kts 238°
2026-05-07 05:37 52.29919 4.75798 3 ft 16 kts 237°
2026-05-07 05:37 52.29860 4.75643 3 ft 16 kts 238°
2026-05-07 05:37 52.29800 4.75485 2 ft 16 kts 238°
2026-05-07 05:38 52.29758 4.75314 2 ft 16 kts 255°
2026-05-07 05:38 52.29715 4.75164 2 ft 13 kts 237°
2026-05-07 05:38 52.29665 4.75037 3 ft 14 kts 237°
2026-05-07 05:38 52.29613 4.74902 2 ft 14 kts 238°
2026-05-07 05:39 52.29560 4.74764 3 ft 14 kts 238°
2026-05-07 05:39 52.29519 4.74658 2 ft 8 kts 238°
2026-05-07 05:39 52.29513 4.74584 2 ft 7 kts 298°
2026-05-07 05:39 52.29558 4.74533 2 ft 8 kts 329°
2026-05-07 05:40 52.29571 4.74521 3 ft 2 kts 328°
2026-05-07 05:40 52.29575 4.74516 2 ft 0 kts 328°